STARLINK-31400, 59405

Orbit data source: Space-Track

STARLINK-31400, 59405 is a payload satellite owned by SpaceX/Seattle (US) in LEO that was launched on Fri, 05 Apr 2024 UTC via an FALCON 9 launch vehicle from the Air Force Eastern Test Range (AFETR). Payload-class satellites include a variety of spacecraft equipped with specific instruments for various scientific and technological missions. These include communications satellites like Starlink; space stations such as the ISS; scientific satellites like the Hubble; Earth observation satellites from companies like Planet Labs, Umbra, and HawkEye 360; GPS; miniature CubeSats for education and research; and military/defense satellites.

Loading next visibility...
Identifier
59405, 2024-064H
Orbit
LEO
Country
Flag of USUS
Related business
Manufacturer
SpaceX/Seattle
Mission
Operational Commercial Communications
Bus & Motor
STARLINK V2M, Unknown motor
Mass
730 kg wet, ~700 kg dry
Launch date (UTC)
2024-04-05 (2 years ago)
Launch vehicle
FALCON 9
Launch site
Air Force Eastern Test Range (AFETR)
Object type
Payload
Rocket body
Debris
Shape & HBR
Box + 2 Pan, 17.7 m
Radar Cross Section
33.884 m², Large (>1 m²)

Expand to show TLE details & history
Last TLE update: 2 days ago

TLE from 2 days ago
0 STARLINK-31400
1 59405U 24064H   26171.37334949  .00000632  00000-0  32501-4 0  9994
2 59405  43.0007 195.9482 0001222 275.7810  84.2903 15.27577556124939
Epoch: 2026-06-20T08:57Z
TLE epoch observation values (Epoch: 2026-06-20T08:57:37.395Z)
Latitude
0.00001°
Longitude
152.95349°
Altitude
482.749 km
Speed
7.626 km/s
True Right ascension
13h 03m 47s
True Declination
0° 00' 00"
Sunlit
Object was in daylight at epoch
Visualization orbit readout
Latitude
Unknown
Longitude
Unknown
Altitude
Unknown
Speed
Unknown
Apparent Right ascension
Unknown
Apparent Declination
Unknown
Sunlit
N/A
Visualization observer readout
Local Sidereal Time
21:27:44
Azimuth
Unknown
Elevation
Unknown
Doppler factor
Unknown
Orbital elements
Apogee altitude
485.84 km
Perigee altitude
484.163 km
Semi-major axis
6,863.138 km
Eccentricity
0.00012
Inclination
43.0007°
RAAN
195.9482°
Arg. of periapsis
275.781°
True anomaly
84.30423°
Mean anomaly
84.2903°
Eccentric anomaly
84.29727°
Mean motion
3.81732 °/min
Orbital period
94.31 mins
BSTAR
0.000032501
Loading maneuver chart data...
Computing Atmospheric mass density...
Loading historical data...
Loading historical data...
Loading historical data...
Loading historical data...
Loading historical data...
Loading historical data...
Loading historical data...

Documentation

Showing up to 5 results
|